Regional Weather Roundup
Issued by NWS

Home | Current Version | Previous Version | Text Only | Print | Product List | Glossary On
Versions: 1 2 3 4 5 6 7 8 9 10 11 12 13 14 15 16 17 18 19 20 21 22 23 24 25 26 27 28 29 30 31 32 33 34 35 36 37 38 39 40 41 42 43 44 45 46 47 48 49 50
000
ASUS45 KBOU 010307
RWRCO

WEATHER ROUNDUP FOR COLORADO
NATIONAL WEATHER SERVICE DENVER/BOULDER CO
900 PM MDT SUN MAY 31 2015

NOTE: "FAIR" INDICATES FEW OR NO CLOUDS BELOW 12000 FEET WITH NO
SIGNIFICANT WEATHER AND/OR OBSTRUCTIONS TO VISIBILITY.

COZ001>005-013-030-031-010400-
...NORTHWEST COLORADO...

CITY           SKY/WX    TMP DP  RH WIND       PRES   REMARKS
CRAIG          MOCLDY    65  41  41 S13       30.15F
HAYDEN         MOCLDY    63  39  42 CALM      30.19R
MEEKER         MOCLDY    62  44  51 E5        30.18F
MOUNT WERNER   NOT AVBL
STEAMBOAT SPGS MOCLDY    61  41  48 CALM      30.21S
WALDEN         CLOUDY    54  34  47 SE3       30.28S
$$

COZ006>008-011-010400-
...WEST CENTRAL VALLEYS...

CITY           SKY/WX    TMP DP  RH WIND       PRES   REMARKS
GRAND JUNCTION MOCLDY    76  41  28 S14G20    30.02R
MONTROSE       CLEAR     71  39  31 E10       30.17R
EAGLE          MOCLDY    73  48  40 E6        30.24S
RIFLE          LGT RAIN  68  44  42 W10G32    30.14R
DELTA          CLEAR     73  42  33 E6        30.12R
NUCLA          PTCLDY    72  37  28 E8        30.16S
$$

COZ017>023-064>068-010400-
...SOUTHWEST COLORADO...

CITY           SKY/WX    TMP DP  RH WIND       PRES   REMARKS
DURANGO        CLEAR     64  45  49 CALM      30.20R
CORTEZ         CLEAR     69  41  36 NE5       30.13R
PAGOSA SPRINGS CLEAR     58  38  46 NE5       30.28S
TELLURIDE      PTCLDY    58  37  45 E3        30.41R
WOLF CREEK PAS NOT AVBL
$$

COZ009-010-012-014-032>034-037-058>063-010400-
...CENTRAL COLORADO...

CITY           SKY/WX    TMP DP  RH WIND       PRES   REMARKS
ASPEN          MOCLDY    56  42  59 SW6       30.30R
BUENA VISTA    MOCLDY    63  35  34 NW15G21   30.30R
COPPER MTN     MOCLDY    45  32  61 W12       30.59S
BERTHOUD PASS  CLOUDY    36  30  80 W24G35    30.59R
COTTONWOOD PAS NOT AVBL
GUNNISON       MOCLDY    61  37  41 S6        30.34R
KREMMLING      CLOUDY    59  41  51 S14       30.28R
LEADVILLE      CLOUDY    49  36  61 CALM      30.43S
MONARCH PASS   MOCLDY    41  34  75 W17       30.69R
SALIDA         MOCLDY    66  40  37 SW10G18   30.35R
SUNLIGHT       MOCLDY    46  34  61 NE5       30.51S
WILKERSON PASS MOCLDY    46  30  53 NW6       30.55R
$$

COZ069>075-010400-
...SAN LUIS VALLEY/SANGRE DE CRISTO MOUNTAINS...

CITY           SKY/WX    TMP DP  RH WIND       PRES   REMARKS
ALAMOSA        CLOUDY    63  36  36 VRB3      30.27F
LA VETA PASS   CLOUDY   N/A N/A N/A MISG      30.46R
SAGUACHE       MOCLDY    59  43  55 NE9       30.33R
$$

COZ035-036-038>040-010400-
...NORTHERN COLORADO FRONT RANGE...

CITY           SKY/WX    TMP DP  RH WIND       PRES   REMARKS
DENVER INTL AP MOCLDY    66  51  58 CALM      30.13R
DMNS CITY PARK   N/A     67  50  54 E6        30.12R
AURORA         MOCLDY    62  51  65 SE7       30.14R
FRONT RANGE AP MOCLDY    68  52  56 S12       30.13R
ERIE MUNI ARPT MOCLDY    67  49  52 SE7       30.10F
BOULDER MUN AP MOCLDY    68  52  56 W3        30.12F
CENTENNIAL     MOCLDY    63  52  67 E6        30.14R
BROOMFIELD     MOCLDY    68  50  52 N5        30.15R
FORT COLLINS   CLOUDY    63  55  77 NE5       30.12R
LONGMONT       CLOUDY    65  56  73 CALM      30.13R
$$

COZ041-046-047-076>085-087-088-010400-
...PIKES PEAK/PALMER DIVIDE AND SOUTHERN FOOTHILLS...

CITY           SKY/WX    TMP DP  RH WIND       PRES   REMARKS
COLO. SPRINGS  MOCLDY    64  49  57 E9        30.19R
A. F. ACADEMY  MOCLDY    64  46  53 E10       30.19R
ELLICOTT         N/A    N/A N/A N/A SE12      30.16F
FALCON         MOCLDY    58  49  73 CALM      30.23R
FORT CARSON    NOT AVBL
LIMON          CLOUDY    60  54  80 S9        30.12S
MONUMENT HILL  MOCLDY    55  48  76 MISG      30.23R
TRINIDAD       CLOUDY    62  50  64 S10       30.20R
$$

COZ042>045-048>051-090-091-010400-
...NORTHEAST COLORADO...

CITY           SKY/WX    TMP DP  RH WIND       PRES   REMARKS
GREELEY ARPT   MOCLDY    64  57  77 NE6       30.09S
AKRON          CLOUDY    64  56  75 SW9       30.08R
BURLINGTON     CLOUDY    62  53  72 SW14      30.04R
WRAY           PTCLDY    68  58  71 CALM      30.01S
STERLING       CLOUDY    63  61  94 CALM      30.02R
HOLYOKE        PTCLDY    68  59  73 SE7       30.03R
FORT MORGAN    CLOUDY    65 -23   2 N5        30.09R
$$

COZ086-089-092>099-010400-
...SOUTHEAST COLORADO...

CITY           SKY/WX    TMP DP  RH WIND       PRES   REMARKS
PUEBLO         CLOUDY    66  55  67 N5        30.09R
LA JUNTA       CLOUDY    69  51  52 E6        30.09R
LAMAR          CLOUDY    71  49  45 NE23G38   30.01F
SPRINGFIELD      N/A     68  54  60 N23       30.09R
$$



USA.gov is the U.S. government's official web portal to all federal, state and local government web resources and services.